Regional Weather Roundup
Issued by NWS Tiyan, Guam

Home | Current Version | Previous Version | Text Only | Print | Product List | Glossary On
Versions: 1 2 3 4 5 6 7 8 9 10 11 12 13 14 15 16 17 18 19 20 21 22 23 24 25 26 27
000
ASGM40 PGUM 250112
RWRGUM
WEATHER ROUNDUP FOR THE MARIANAS
NATIONAL WEATHER SERVICE TIYAN GU
1100 AM CHST SUN JUN 25 2017

GUZ001>004-250200-
MARIANA ISLANDS-

CITY           SKY/WX    TMP DP  RH WIND       PRES   REMARKS
GUAM AIRPORT   LGT RAIN  84  81  89 N9        29.82S HX  98
ANDERSEN AFB   LGT RAIN  82  79  89 NE9       29.82F HX  93
ROTA AIRPORT   LGT RAIN  81  75  83 E15       29.82S
TINIAN AP      PTSUNNY   82  79  89 E10       29.82S HX  93
SAIPAN AP      CLOUDY    82  79  89 E14       29.84S HX  93

$$





USA.gov is the U.S. government's official web portal to all federal, state and local government web resources and services.